Miscellaneous Local Product
Issued by NWS Hastings, NE

Home | Current Version | Previous Version | Text Only | Print | Product List | Glossary Off
Versions: 1 2 3 4 5 6 7 8 9 10 11 12 13 14 15 16 17 18 19 20 21 22 23 24 25 26 27 28 29 30 31 32 33 34 35 36 37 38 39 40 41 42 43 44 45 46 47 48 49 50

449
AXUS43 KGID 090202
MISGRI

GID CWA HOURLY WEATHER ROUNDUP
NATIONAL WEATHER SERVICE HASTINGS NE
800 PM CST MON FEB 08 2016

NOTE: "FAIR" INDICATES FEW OR NO CLOUDS BELOW 12,000 FEET WITH NO
SIGNIFICANT WEATHER AND/OR OBSTRUCTIONS TO VISIBILITY.

...SOUTH CENTRAL NEBRASKA...

CITY           SKY/WX    TMP DP  RH WIND       PRES   REMARKS
GRAND ISLAND   CLOUDY    27  17  66 NW8       30.18R WCI  19
HASTINGS       CLEAR     26  17  68 NW8       30.18R WCI  18
ORD            PTCLDY    28  17  63 NW10      30.17S WCI  19
YORK           PTCLDY    32  21  64 NW22      30.15S WCI  19
AURORA         CLOUDY    29  19  66 NW13      30.16S WCI  19
LEXINGTON      PTCLDY    26  17  68 NW10      30.22R WCI  16
HOLDREGE       CLEAR     28  16  62 W8        30.21R WCI  20
HEBRON         PTCLDY    31  22  68 NW8       30.18R WCI  24

...NEBRASKA PANHANDLE...

CITY           SKY/WX    TMP DP  RH WIND       PRES   REMARKS
CHADRON        CLOUDY    33  23  66 CALM      30.27R
ALLIANCE       CLOUDY    29  25  85 W7        30.25R WCI  22
SCOTTSBLUFF    MOCLDY    38  29  70 NW12      30.29F WCI  30
SIDNEY         CLEAR     37  28  70 NW15      30.26F WCI  28

...WESTERN AND NORTH CENTRAL NEBRASKA...

CITY           SKY/WX    TMP DP  RH WIND       PRES   REMARKS
VALENTINE      MOCLDY    28  17  63 W6        30.21F WCI  22
AINSWORTH      PTCLDY    31  17  57 NW13      30.19S WCI  21
ONEILL         PTCLDY    31  20  64 NW13      30.16F WCI  21
BROKEN BOW     CLEAR     30  15  53 NW14      30.17F WCI  19
IMPERIAL       CLOUDY    30  19  63 NW9       30.25F WCI  22
NORTH PLATTE   CLOUDY    32  20  61 W10       30.22F WCI  24
MCCOOK         CLOUDY    31  20  63 W12       30.25S WCI  22

...EASTERN NEBRASKA...

CITY           SKY/WX    TMP DP  RH WIND       PRES   REMARKS
NORFOLK        CLOUDY    33  20  58 NW23      30.10F WCI  21
SO SIOUX CITY  PTCLDY    27  16  63 N23       30.09F WCI  12
TEKAMAH        CLOUDY    29  18  63 N14       30.09F WCI  18
COLUMBUS       CLOUDY    30  16  55 NW15      30.12F WCI  19
ALBION         CLOUDY    31  19  62 NW22G28   30.13S WCI  18
OMAHA EPPLEY   CLOUDY    25  18  74 N8        30.10S WCI  16
OFFUTT AFB     CLEAR     28  18  65 NW12      30.09S WCI  18
MILLARD        CLOUDY    29  19  66 NW8G17    30.10F WCI  21
LINCOLN        CLOUDY    32  21  64 NW13      30.14R WCI  22
NEBRASKA CITY  CLOUDY    28  20  72 N13       30.10S WCI  17
BEATRICE       CLOUDY    32  23  71 NW13      30.14R WCI  22
FALLS CITY     PTCLDY    28  19  69 NW9       30.11S WCI  19

...NORTHERN KANSAS...

CITY           SKY/WX    TMP DP  RH WIND       PRES   REMARKS
GOODLAND       CLEAR     27  22  81 W5        30.27S WCI  22
HILL CITY      PTCLDY    30  19  63 W8        30.26F WCI  22
NORTON         CLOUDY    30  16  55 W10       30.23F WCI  21
PHILLIPSBURG   CLEAR     30  19  64 CALM      30.25R
SMITH CENTER   CLEAR     28  19  69 W10       30.23R WCI  19
BELOIT         CLEAR     30  19  64 W7        30.21S WCI  23
HAYS           CLEAR     30  14  51 W9        30.26R WCI  22
RUSSELL        CLEAR     32  21  64 NW15      30.23F WCI  22
CONCORDIA      PTCLDY    32  19  58 NW15      30.19S WCI  22
SALINA         CLEAR     36  17  46 NW16      30.21S WCI  26
TOPEKA         CLOUDY    33  16  49 NW9       30.12F WCI  25



USA.gov is the U.S. government's official web portal to all federal, state and local government web resources and services.